RYR94 EIDW-EGLL

Flight info

Callsign RYR94
Flight time 0h 56m
Altitude 35000
Route PESIT2J PESIT DCT BAKUR DCT ECCIT DCT GUBJE DCT GISOK DCT TACQI DCT FONZU DCT ELRIP DCT OTMET
Aircraft B38M/M-SDE1FGHILORVWXY/HB1

Departure

Time 2026-05-06 22:09
Airport Dublin Airport (EIDW)

Arrival

Time 2026-05-06 23:06
Airport London Heathrow Airport (EGLL)
Time Latitude Longitude Altitude Speed Heading
2026-05-06 21:23 53.42624 -6.24698 212 ft 0 kts 90°
2026-05-06 21:33 53.42624 -6.24709 212 ft 4 kts 89°
2026-05-06 21:34 53.42623 -6.24754 212 ft 4 kts 84°
2026-05-06 21:34 53.42619 -6.24799 212 ft 4 kts 76°
2026-05-06 21:34 53.42610 -6.24841 219 ft 4 kts 55°
2026-05-06 21:34 53.42594 -6.24863 212 ft 3 kts 348°
2026-05-06 21:35 53.42587 -6.24860 212 ft 0 kts 339°
2026-05-06 21:43 53.42624 -6.24698 212 ft 1 kts 90°
2026-05-06 21:56 53.42624 -6.24701 212 ft 2 kts 90°
2026-05-06 21:56 53.42623 -6.24743 212 ft 4 kts 85°
2026-05-06 21:56 53.42620 -6.24788 212 ft 4 kts 78°
2026-05-06 21:57 53.42613 -6.24831 212 ft 4 kts 63°
2026-05-06 21:57 53.42598 -6.24861 219 ft 4 kts
2026-05-06 21:57 53.42588 -6.24861 212 ft 1 kts 339°
2026-05-06 21:57 53.42587 -6.24860 212 ft 0 kts 339°
2026-05-06 22:00 53.42591 -6.24864 212 ft 2 kts 332°
2026-05-06 22:01 53.42611 -6.24883 214 ft 5 kts 330°
2026-05-06 22:01 53.42649 -6.24919 214 ft 8 kts 330°
2026-05-06 22:01 53.42699 -6.24975 221 ft 10 kts 325°
2026-05-06 22:01 53.42762 -6.25050 220 ft 12 kts 324°
2026-05-06 22:02 53.42837 -6.25142 214 ft 13 kts 319°
2026-05-06 22:02 53.42905 -6.25254 215 ft 14 kts 313°
2026-05-06 22:02 53.42968 -6.25371 217 ft 12 kts 325°
2026-05-06 22:02 53.43041 -6.25430 220 ft 13 kts 335°
2026-05-06 22:03 53.43127 -6.25497 214 ft 15 kts 336°
2026-05-06 22:03 53.43226 -6.25566 214 ft 16 kts 338°
2026-05-06 22:03 53.43333 -6.25640 219 ft 17 kts 340°
2026-05-06 22:03 53.43404 -6.25632 220 ft 4 kts 51°
2026-05-06 22:04 53.43405 -6.25615 212 ft 1 kts 84°
2026-05-06 22:04 53.43407 -6.25582 214 ft 4 kts 85°
2026-05-06 22:04 53.43409 -6.25517 212 ft 5 kts 90°
2026-05-06 22:04 53.43406 -6.25455 212 ft 6 kts 96°
2026-05-06 22:05 53.43399 -6.25370 215 ft 9 kts 98°
2026-05-06 22:05 53.43390 -6.25262 217 ft 10 kts 94°
2026-05-06 22:05 53.43384 -6.25137 219 ft 12 kts 94°
2026-05-06 22:05 53.43377 -6.24989 212 ft 14 kts 94°
2026-05-06 22:06 53.43369 -6.24821 213 ft 16 kts 95°
2026-05-06 22:06 53.43359 -6.24628 220 ft 17 kts 95°
2026-05-06 22:06 53.43347 -6.24422 212 ft 18 kts 95°
2026-05-06 22:06 53.43333 -6.24206 212 ft 19 kts 95°
2026-05-06 22:07 53.43320 -6.23975 212 ft 20 kts 95°
2026-05-06 22:07 53.43315 -6.23764 215 ft 11 kts 64°
2026-05-06 22:07 53.43339 -6.23741 220 ft 0 kts 353°
2026-05-06 22:07 53.43356 -6.23755 215 ft 16 kts 333°
2026-05-06 22:08 53.43452 -6.23847 221 ft 16 kts 336°
2026-05-06 22:08 53.43492 -6.23929 214 ft 6 kts 272°
2026-05-06 22:08 53.43495 -6.24007 210 ft 7 kts 275°
2026-05-06 22:08 53.43510 -6.24375 215 ft 72 kts 276°
2026-05-06 22:09 53.43576 -6.25687 219 ft 149 kts 279°
2026-05-06 22:09 53.43666 -6.27727 325 ft 199 kts 272°
2026-05-06 22:09 53.43856 -6.30297 728 ft 230 kts 279°
2026-05-06 22:09 53.44429 -6.32756 1778 ft 223 kts 304°
2026-05-06 22:10 53.45524 -6.34352 2886 ft 201 kts 332°
2026-05-06 22:10 53.46703 -6.35562 3735 ft 196 kts 309°
2026-05-06 22:10 53.47483 -6.37337 4792 ft 175 kts 302°
2026-05-06 22:10 53.48181 -6.39010 5534 ft 177 kts 302°
2026-05-06 22:11 53.48910 -6.40750 6063 ft 188 kts 302°
2026-05-06 22:11 53.49698 -6.42618 6548 ft 203 kts 302°
2026-05-06 22:11 53.50536 -6.44642 6967 ft 219 kts 297°
2026-05-06 22:11 53.50919 -6.47159 7368 ft 233 kts 266°
2026-05-06 22:12 53.50407 -6.49796 7781 ft 250 kts 234°
2026-05-06 22:12 53.49004 -6.51586 8341 ft 263 kts 199°
2026-05-06 22:12 53.47153 -6.51752 8920 ft 277 kts 174°
2026-05-06 22:12 53.45254 -6.51079 9002 ft 278 kts 166°
2026-05-06 22:13 53.43394 -6.50187 9001 ft 278 kts 166°
2026-05-06 22:13 53.41542 -6.49415 9004 ft 277 kts 169°
2026-05-06 22:13 53.39654 -6.48726 9000 ft 278 kts 169°
2026-05-06 22:13 53.37767 -6.48020 9001 ft 278 kts 168°
2026-05-06 22:14 53.35883 -6.47283 8999 ft 278 kts 168°
2026-05-06 22:14 53.33997 -6.46546 9004 ft 278 kts 168°
2026-05-06 22:14 53.32113 -6.45820 9002 ft 278 kts 168°
2026-05-06 22:14 53.30286 -6.44751 9044 ft 280 kts 157°
2026-05-06 22:15 53.28516 -6.43362 9622 ft 281 kts 156°
2026-05-06 22:15 53.26730 -6.41954 10407 ft 287 kts 156°
2026-05-06 22:15 53.24881 -6.40524 10884 ft 300 kts 157°
2026-05-06 22:15 53.22933 -6.39026 11256 ft 317 kts 157°
2026-05-06 22:16 53.20902 -6.37456 11575 ft 334 kts 157°
2026-05-06 22:16 53.18730 -6.35774 11843 ft 352 kts 157°
2026-05-06 22:16 53.16451 -6.34013 12204 ft 367 kts 157°
2026-05-06 22:16 53.14104 -6.32203 12740 ft 376 kts 157°
2026-05-06 22:17 53.11703 -6.30354 13339 ft 382 kts 157°
2026-05-06 22:17 53.10094 -6.29116 13772 ft 386 kts 157°
2026-05-06 22:17 53.07636 -6.27228 14342 ft 391 kts 157°
2026-05-06 22:17 53.05147 -6.25317 14935 ft 395 kts 157°
2026-05-06 22:18 53.02630 -6.23388 15524 ft 400 kts 157°
2026-05-06 22:18 53.00088 -6.21442 16112 ft 404 kts 157°
2026-05-06 22:18 52.97522 -6.19480 16687 ft 408 kts 157°
2026-05-06 22:18 52.94964 -6.17528 17264 ft 412 kts 157°
2026-05-06 22:19 52.92347 -6.15523 17840 ft 416 kts 156°
2026-05-06 22:19 52.89712 -6.13487 18388 ft 420 kts 156°
2026-05-06 22:19 52.87046 -6.11430 18870 ft 424 kts 156°
2026-05-06 22:19 52.84361 -6.09373 19363 ft 427 kts 156°
2026-05-06 22:20 52.81657 -6.07305 19855 ft 430 kts 156°
2026-05-06 22:20 52.78925 -6.05214 20345 ft 433 kts 156°
2026-05-06 22:20 52.76172 -6.03107 20832 ft 436 kts 156°
2026-05-06 22:20 52.73443 -6.01025 21299 ft 439 kts 156°
2026-05-06 22:21 52.70661 -5.98907 21773 ft 442 kts 156°
2026-05-06 22:21 52.67852 -5.96769 22237 ft 445 kts 156°
2026-05-06 22:21 52.65028 -5.94622 22697 ft 448 kts 155°
2026-05-06 22:21 52.62188 -5.92467 23001 ft 449 kts 155°
2026-05-06 22:22 52.59352 -5.90319 22994 ft 446 kts 155°
2026-05-06 22:22 52.56533 -5.88186 22997 ft 445 kts 155°
2026-05-06 22:22 52.53720 -5.86060 22994 ft 445 kts 155°
2026-05-06 22:22 52.50899 -5.83932 22998 ft 445 kts 155°
2026-05-06 22:23 52.48086 -5.81813 22995 ft 445 kts 155°
2026-05-06 22:23 52.45308 -5.79723 22999 ft 445 kts 155°
2026-05-06 22:23 52.42495 -5.77610 22997 ft 445 kts 155°
2026-05-06 22:23 52.39659 -5.75571 22995 ft 445 kts 161°
2026-05-06 22:24 52.36689 -5.74070 23286 ft 447 kts 164°
2026-05-06 22:24 52.33689 -5.72642 23723 ft 451 kts 164°
2026-05-06 22:24 52.30665 -5.71193 24083 ft 454 kts 163°
2026-05-06 22:24 52.27628 -5.69707 24439 ft 457 kts 163°
2026-05-06 22:25 52.24571 -5.68224 24802 ft 460 kts 165°
2026-05-06 22:25 52.21423 -5.67127 25153 ft 462 kts 169°
2026-05-06 22:25 52.18247 -5.66172 25498 ft 465 kts 169°
2026-05-06 22:25 52.15107 -5.65150 25832 ft 468 kts 165°
2026-05-06 22:26 52.12065 -5.63226 26185 ft 470 kts 152°
2026-05-06 22:26 52.09307 -5.60419 26687 ft 467 kts 145°
2026-05-06 22:26 52.06638 -5.57411 27172 ft 466 kts 144°
2026-05-06 22:26 52.03960 -5.54471 27642 ft 465 kts 149°
2026-05-06 22:27 52.01071 -5.52103 28101 ft 464 kts 153°
2026-05-06 22:27 51.98163 -5.49826 28533 ft 464 kts 153°
2026-05-06 22:27 51.95258 -5.47551 28974 ft 463 kts 153°
2026-05-06 22:27 51.92367 -5.45265 29400 ft 463 kts 153°
2026-05-06 22:28 51.89471 -5.42974 29827 ft 462 kts 153°
2026-05-06 22:28 51.86580 -5.40706 30218 ft 461 kts 153°
2026-05-06 22:28 51.83689 -5.38445 30566 ft 461 kts 153°
2026-05-06 22:28 51.80808 -5.36188 30910 ft 460 kts 152°
2026-05-06 22:29 51.77927 -5.33930 31250 ft 460 kts 152°
2026-05-06 22:29 51.75052 -5.31684 31592 ft 459 kts 152°
2026-05-06 22:29 51.72179 -5.29444 31931 ft 459 kts 152°
2026-05-06 22:29 51.69303 -5.27205 32255 ft 458 kts 152°
2026-05-06 22:30 51.66468 -5.24999 32599 ft 457 kts 153°
2026-05-06 22:30 51.63606 -5.22775 32921 ft 457 kts 153°
2026-05-06 22:30 51.60730 -5.20545 33268 ft 456 kts 153°
2026-05-06 22:30 51.57869 -5.18329 33595 ft 456 kts 153°
2026-05-06 22:31 51.55005 -5.16113 33927 ft 455 kts 153°
2026-05-06 22:31 51.52161 -5.13914 33991 ft 451 kts 152°
2026-05-06 22:31 51.49540 -5.11346 34011 ft 445 kts 140°
2026-05-06 22:31 51.47191 -5.08133 34017 ft 443 kts 136°
2026-05-06 22:32 51.42566 -5.01554 33993 ft 445 kts 137°
2026-05-06 22:32 51.37914 -4.95005 34001 ft 445 kts 137°
2026-05-06 22:33 51.33262 -4.88453 34001 ft 445 kts 137°
2026-05-06 22:33 51.28608 -4.81923 34001 ft 445 kts 137°
2026-05-06 22:34 51.23943 -4.75395 34012 ft 446 kts 138°
2026-05-06 22:34 51.19270 -4.68874 33997 ft 446 kts 139°
2026-05-06 22:35 51.14622 -4.62407 34008 ft 446 kts 139°
2026-05-06 22:35 51.09937 -4.55906 33998 ft 447 kts 139°
2026-05-06 22:36 51.05265 -4.49377 34005 ft 446 kts 134°
2026-05-06 22:36 51.03310 -4.45555 34024 ft 446 kts 121°
2026-05-06 22:36 51.01702 -4.41349 34021 ft 445 kts 120°
2026-05-06 22:37 50.98569 -4.32925 34023 ft 445 kts 120°
2026-05-06 22:37 50.95379 -4.24497 34020 ft 445 kts 120°
2026-05-06 22:38 50.92188 -4.16035 34017 ft 447 kts 120°
2026-05-06 22:38 50.88980 -4.07584 34022 ft 448 kts 121°
2026-05-06 22:39 50.85766 -3.99134 34019 ft 448 kts 121°
2026-05-06 22:39 50.82602 -3.90733 34023 ft 447 kts 116°
2026-05-06 22:40 50.80486 -3.81483 34026 ft 451 kts 108°
2026-05-06 22:40 50.78526 -3.72028 34035 ft 453 kts 109°
2026-05-06 22:41 50.75532 -3.57850 34031 ft 453 kts 108°
2026-05-06 22:42 50.73546 -3.48478 34029 ft 452 kts 109°
2026-05-06 22:42 50.71540 -3.39057 34033 ft 453 kts 109°
2026-05-06 22:43 50.69528 -3.29646 34033 ft 452 kts 109°
2026-05-06 22:43 50.67506 -3.20238 34029 ft 453 kts 109°
2026-05-06 22:44 50.65477 -3.10833 34028 ft 453 kts 109°
2026-05-06 22:44 50.63609 -3.01363 34033 ft 453 kts 99°
2026-05-06 22:44 50.63376 -2.96419 34028 ft 453 kts 87°
2026-05-06 22:45 50.63747 -2.91466 33470 ft 459 kts 79°
2026-05-06 22:45 50.64331 -2.86489 32728 ft 461 kts 79°
2026-05-06 22:45 50.64888 -2.81518 31996 ft 460 kts 79°
2026-05-06 22:45 50.65428 -2.76557 31258 ft 459 kts 79°
2026-05-06 22:46 50.65976 -2.71607 30489 ft 458 kts 79°
2026-05-06 22:46 50.66531 -2.66660 29647 ft 459 kts 79°
2026-05-06 22:46 50.67081 -2.61700 28837 ft 459 kts 80°
2026-05-06 22:46 50.67623 -2.56735 27989 ft 461 kts 80°
2026-05-06 22:47 50.67739 -2.51765 27298 ft 460 kts 96°
2026-05-06 22:47 50.67665 -2.46729 27016 ft 461 kts 84°
2026-05-06 22:47 50.68162 -2.41740 26456 ft 462 kts 77°
2026-05-06 22:47 50.68995 -2.36859 26047 ft 459 kts 72°
2026-05-06 22:48 50.69995 -2.32012 25807 ft 467 kts 71°
2026-05-06 22:48 50.70922 -2.27108 25572 ft 465 kts 75°
2026-05-06 22:48 50.71672 -2.22138 25592 ft 468 kts 77°
2026-05-06 22:48 50.72435 -2.17146 25597 ft 467 kts 75°
2026-05-06 22:49 50.73298 -2.12207 25602 ft 467 kts 73°
2026-05-06 22:49 50.74189 -2.07286 25605 ft 467 kts 73°
2026-05-06 22:49 50.75097 -2.02415 25606 ft 467 kts 71°
2026-05-06 22:49 50.76277 -1.97570 25619 ft 466 kts 66°
2026-05-06 22:50 50.77585 -1.92954 25623 ft 466 kts 65°
2026-05-06 22:50 50.78861 -1.88245 25623 ft 467 kts 68°
2026-05-06 22:50 50.79985 -1.83420 25653 ft 467 kts 70°
2026-05-06 22:50 50.81098 -1.78597 25654 ft 467 kts 68°
2026-05-06 22:51 50.82299 -1.73813 25652 ft 467 kts 67°
2026-05-06 22:51 50.83517 -1.69048 25651 ft 467 kts 68°
2026-05-06 22:51 50.84689 -1.64246 25647 ft 467 kts 69°
2026-05-06 22:51 50.85837 -1.59432 25410 ft 470 kts 69°
2026-05-06 22:52 50.87032 -1.54515 24410 ft 481 kts 68°
2026-05-06 22:52 50.88254 -1.49562 23362 ft 481 kts 68°
2026-05-06 22:52 50.89438 -1.44710 22363 ft 475 kts 68°
2026-05-06 22:52 50.90605 -1.39854 21381 ft 469 kts 69°
2026-05-06 22:53 50.91752 -1.35087 20417 ft 463 kts 68°
2026-05-06 22:53 50.92904 -1.30329 19452 ft 458 kts 68°
2026-05-06 22:53 50.94027 -1.25679 18511 ft 453 kts 68°
2026-05-06 22:53 50.95144 -1.21020 17539 ft 447 kts 68°
2026-05-06 22:54 50.96235 -1.16458 16607 ft 440 kts 69°
2026-05-06 22:54 50.97336 -1.11853 15695 ft 433 kts 69°
2026-05-06 22:54 50.98397 -1.07415 14795 ft 427 kts 68°
2026-05-06 22:54 50.99432 -1.03068 13921 ft 422 kts 68°
2026-05-06 22:55 51.00625 -0.98873 13228 ft 410 kts 58°
2026-05-06 22:55 51.02282 -0.95330 12869 ft 390 kts 49°
2026-05-06 22:55 51.04059 -0.92120 12253 ft 382 kts 47°
2026-05-06 22:55 51.05836 -0.89015 11929 ft 379 kts 46°
2026-05-06 22:56 51.07572 -0.85954 11587 ft 365 kts 47°
2026-05-06 22:56 51.09210 -0.83013 11244 ft 356 kts 47°
2026-05-06 22:56 51.10854 -0.80061 10933 ft 357 kts 47°
2026-05-06 22:56 51.12504 -0.77119 10598 ft 355 kts 47°
2026-05-06 22:57 51.14148 -0.74183 10243 ft 353 kts 47°
2026-05-06 22:57 51.15773 -0.71272 9910 ft 351 kts 47°
2026-05-06 22:57 51.17392 -0.68365 9560 ft 349 kts 47°
2026-05-06 22:57 51.19003 -0.65471 9235 ft 348 kts 47°
2026-05-06 22:58 51.20605 -0.62594 8914 ft 346 kts 47°
2026-05-06 22:58 51.22177 -0.59763 8601 ft 344 kts 47°
2026-05-06 22:58 51.23760 -0.56910 8280 ft 343 kts 47°
2026-05-06 22:58 51.25337 -0.54066 7963 ft 341 kts 47°
2026-05-06 22:59 51.26990 -0.51376 7538 ft 337 kts 35°
2026-05-06 22:59 51.29095 -0.49835 7189 ft 334 kts 12°
2026-05-06 22:59 51.31373 -0.49641 6835 ft 331 kts 352°
2026-05-06 22:59 51.33540 -0.50821 6401 ft 324 kts 329°
2026-05-06 23:00 51.35246 -0.53083 5964 ft 316 kts 314°
2026-05-06 23:00 51.36711 -0.55667 5571 ft 309 kts 312°
2026-05-06 23:00 51.38106 -0.58222 5179 ft 302 kts 312°
2026-05-06 23:00 51.39475 -0.60683 4799 ft 296 kts 312°
2026-05-06 23:01 51.40873 -0.63154 4413 ft 290 kts 313°
2026-05-06 23:01 51.42214 -0.65539 4045 ft 286 kts 313°
2026-05-06 23:01 51.43511 -0.67863 3689 ft 281 kts 313°
2026-05-06 23:01 51.44834 -0.70193 3327 ft 276 kts 319°
2026-05-06 23:02 51.46485 -0.71513 2992 ft 270 kts 352°
2026-05-06 23:02 51.48313 -0.71099 2633 ft 267 kts 27°
2026-05-06 23:02 51.49566 -0.69170 2417 ft 234 kts 62°
2026-05-06 23:02 51.49721 -0.66846 2224 ft 198 kts 107°
2026-05-06 23:03 51.49022 -0.65107 2037 ft 175 kts 127°
2026-05-06 23:03 51.48327 -0.63641 1860 ft 156 kts 120°
2026-05-06 23:03 51.47849 -0.62167 1699 ft 144 kts 107°
2026-05-06 23:03 51.47724 -0.60636 1553 ft 139 kts 89°
2026-05-06 23:04 51.47711 -0.58972 1452 ft 160 kts 88°
2026-05-06 23:04 51.47714 -0.57227 1143 ft 153 kts 87°
2026-05-06 23:04 51.47721 -0.55535 1006 ft 149 kts 87°
2026-05-06 23:04 51.47725 -0.54454 1026 ft 144 kts 87°
2026-05-06 23:05 51.47732 -0.52921 980 ft 125 kts 87°
2026-05-06 23:05 51.47750 -0.51500 712 ft 133 kts 88°
2026-05-06 23:05 51.47762 -0.50113 332 ft 116 kts 86°
2026-05-06 23:05 51.47757 -0.48852 135 ft 107 kts 89°
2026-05-06 23:06 51.47763 -0.47811 86 ft 76 kts 89°
2026-05-06 23:06 51.47746 -0.47217 87 ft 31 kts 107°
2026-05-06 23:06 51.47646 -0.47052 90 ft 16 kts 150°
2026-05-06 23:06 51.47554 -0.47001 90 ft 11 kts 177°
2026-05-06 23:07 51.47514 -0.47024 92 ft 2 kts 230°
2026-05-06 23:07 51.47506 -0.47045 87 ft 4 kts 241°
2026-05-06 23:07 51.47494 -0.47098 90 ft 5 kts 262°
2026-05-06 23:07 51.47492 -0.47203 87 ft 14 kts 268°
2026-05-06 23:08 51.47491 -0.47371 87 ft 16 kts 270°
2026-05-06 23:08 51.47492 -0.47579 87 ft 20 kts 269°
2026-05-06 23:08 51.47490 -0.47820 87 ft 23 kts 269°
2026-05-06 23:08 51.47489 -0.48095 87 ft 26 kts 269°
2026-05-06 23:09 51.47474 -0.48380 90 ft 23 kts 255°
2026-05-06 23:09 51.47384 -0.48475 87 ft 14 kts 179°
2026-05-06 23:09 51.47280 -0.48475 87 ft 17 kts 179°
2026-05-06 23:09 51.47151 -0.48471 91 ft 20 kts 180°
2026-05-06 23:10 51.47001 -0.48472 90 ft 19 kts 189°
2026-05-06 23:10 51.46981 -0.48518 90 ft 2 kts 301°
2026-05-06 23:10 51.46989 -0.48538 88 ft 3 kts 294°
2026-05-06 23:10 51.46995 -0.48576 89 ft 4 kts 272°
2026-05-06 23:11 51.46994 -0.48608 88 ft 0 kts 266°